FW3257 Weather Reports


time (UTC)temp
C
wind
direction
speed
KPH
gust
KPH
rain 1hr
cm
rain 24hr
cm
rain mn
cm
humidity
%
barometer
mb
20260508181505 13 61 6.4 16.1 0.00 2.06 0.00 61 1001.3
20260508180002 13 34 8.0 16.1 0.00 2.06 0.00 64 1001.7
20260508174607 12 41 6.4 19.3 0.00 2.08 0.00 65 1001.7
20260508173057 12 33 9.7 20.9 0.00 2.08 0.00 66 1001.7
20260508171558 12 40 8.0 24.1 0.00 2.08 0.00 66 1001.8
20260508170056 11 45 11.3 20.9 0.00 2.08 0.00 70 1002.0
20260508164549 11 9 6.4 17.7 0.00 2.08 0.00 73 1002.1
20260508163110 10 360 4.8 19.3 0.00 2.08 0.00 76 1002.1
20260508161545 10 12 12.9 20.9 0.00 2.08 0.00 75 1001.7
20260508160044 10 27 9.7 17.7 0.00 2.08 0.00 77 1001.8
20260508154551 10 348 9.7 17.7 0.00 2.11 0.00 77 1002.2
20260508153042 10 360 12.9 20.9 0.00 2.11 0.00 76 1001.9
20260508151542 11 32 9.7 16.1 0.00 2.11 0.00 79 1001.7
20260508150039 11 20 9.7 17.7 0.00 2.11 0.00 80 1002.0
20260508144540 11 34 8.0 19.3 0.00 2.11 0.00 81 1002.0
20260508143037 11 32 9.7 17.7 0.00 2.11 0.00 84 1001.9
20260508141536 11 360 4.8 17.7 0.00 2.11 0.00 85 1002.2
20260508140033 11 51 6.4 16.1 0.00 2.11 0.00 87 1002.2
20260508134536 10 23 6.4 14.5 0.00 2.11 0.00 86 1002.4
20260508133030 11 15 6.4 14.5 0.00 2.11 0.00 87 1002.6
20260508131527 10 5 4.8 16.1 0.00 2.11 0.00 89 1002.8
20260508130022 10 5 6.4 14.5 0.00 2.11 0.00 93 1002.4
20260508124518 9 5 11.3 19.3 0.00 2.11 0.00 94 1002.2
20260508123016 8 47 8.0 19.3 0.00 2.11 0.00 98 1002.3
20260508121517 8 32 8.0 20.9 0.00 2.11 0.00 100 1002.8
20260508120015 8 38 4.8 16.1 0.00 2.11 0.00 100 1002.6
20260508114513 7 17 4.8 12.9 0.00 2.11 0.00 100 1002.7
20260508113011 6 46 4.8 14.5 0.00 2.11 0.00 100 1003.0
20260508111511 6 39 4.8 12.9 0.00 2.11 0.00 100 1002.7
20260508110010 6 15 3.2 8.0 0.00 2.11 0.00 100 1002.6
20260508104508 6 10 3.2 6.4 0.00 2.11 0.00 100 1002.6
20260508103011 6 10 1.6 4.8 0.00 2.11 0.00 100 1003.3
20260508101519 6 12 1.6 6.4 0.00 2.11 0.00 100 1003.0
20260508100006 6 13 3.2 8.0 0.00 2.11 0.00 100 1002.9
20260508094505 6 360 4.8 9.7 0.00 2.13 0.00 100 1002.7
20260508093009 6 32 3.2 8.0 0.00 2.13 0.00 100 1002.7
20260508091502 6 26 3.2 12.9 0.00 2.13 0.00 100 1002.6
20260508090111 6 26 6.4 12.9 0.00 2.13 0.00 100 1002.6
20260508084556 6 32 4.8 8.0 0.00 2.24 0.00 100 1002.4
20260508083054 6 38 3.2 12.9 0.00 2.24 0.00 100 1002.4
20260508081601 7 23 3.2 8.0 0.00 2.24 0.00 100 1002.1
20260508080054 7 31 4.8 6.4 0.00 2.24 0.00 100 1002.0
20260508074551 8 360 3.2 9.7 0.00 2.31 0.00 100 1002.0
20260508073050 8 22 4.8 9.7 0.00 2.31 0.00 100 1001.9
20260508071651 8 9 4.8 9.7 0.00 2.31 0.00 100 1002.1
20260508070046 7 36 4.8 6.4 0.00 2.31 0.00 100 1002.0
20260508064544 7 184 0.0 0.0 0.00 2.31 0.00 100 1001.9
20260508063044 7 184 0.0 0.0 0.00 2.31 0.00 100 1001.9
20260508061543 7 184 0.0 0.0 0.00 2.31 0.00 100 1002.0
20260508060044 7 184 0.0 0.0 0.00 2.31 0.00 100 1001.9
20260508054602 7 184 0.0 0.0 0.00 2.31 0.00 100 1001.9
20260508053042 7 184 0.0 0.0 0.00 2.31 0.00 100 1001.9
20260508051540 7 184 0.0 0.0 0.00 2.31 0.00 100 1001.8
20260508050041 7 184 0.0 0.0 0.00 2.31 0.00 100 1001.7
20260508044546 7 184 0.0 0.0 0.00 2.31 0.00 100 1002.0
20260508043037 7 184 0.0 0.0 0.00 2.31 0.00 100 1002.1
20260508041545 7 184 0.0 0.0 0.00 2.31 0.00 100 1002.1
20260508040032 7 184 0.0 3.2 0.00 2.31 0.00 100 1002.3
20260508034531 7 184 0.0 4.8 0.00 2.31 0.00 100 1002.4
20260508033036 7 186 0.0 3.2 0.00 2.31 0.00 100 1002.6
20260508031526 7 186 0.0 0.0 0.00 2.31 0.00 100 1002.6
20260508030036 7 186 1.6 4.8 0.00 2.31 0.00 100 1002.8
20260508024524 7 186 1.6 6.4 0.00 2.31 2.31 100 1002.6
20260508023036 7 185 3.2 6.4 0.00 2.31 2.31 100 1002.5
20260508021522 7 182 1.6 8.0 0.00 2.31 2.31 100 1002.5
20260508020021 7 186 3.2 9.7 0.00 2.31 2.31 100 1002.5
20260508014519 7 150 3.2 9.7 0.03 2.31 2.31 100 1002.6
20260508013020 7 182 1.6 6.4 0.03 2.31 2.31 100 1002.5
20260508011518 7 181 3.2 9.7 0.03 2.31 2.31 100 1002.7
20260508010033 8 187 1.6 4.8 0.03 2.31 2.31 100 1002.7
20260508004522 8 186 4.8 9.7 0.00 2.31 2.31 100 1003.1
20260508003020 8 185 6.4 8.0 0.00 2.31 2.31 100 1003.0
20260508001525 8 173 6.4 12.9 0.00 2.31 2.31 100 1002.8
20260508000019 8 173 1.6 8.0 0.00 2.31 2.31 100 1003.0
20260507234512 8 190 6.4 11.3 0.00 2.31 2.31 100 1003.3
20260507233012 8 192 4.8 12.9 0.03 2.31 2.31 100 1002.9
20260507231511 8 193 4.8 11.3 0.03 2.31 2.31 100 1003.3
20260507230012 8 207 4.8 14.5 0.03 2.31 2.31 100 1003.5
20260507224511 8 148 8.0 12.9 0.03 2.31 2.31 100 1003.3
20260507223011 8 228 4.8 16.1 0.03 2.29 2.29 100 1003.6
20260507221510 8 182 4.8 19.3 0.03 2.29 2.29 100 1003.6
20260507220008 8 200 8.0 16.1 0.03 2.29 2.29 100 1003.8
20260507214508 8 189 8.0 20.9 0.05 2.29 2.29 100 1003.9
20260507213017 8 217 8.0 16.1 0.15 2.26 2.26 100 1003.8
20260507211506 8 164 11.3 25.7 0.41 2.26 2.26 100 1003.2
20260507210007 8 181 4.8 14.5 0.56 2.26 2.26 100 1004.2
20260507204607 7 157 6.4 12.9 0.69 2.21 2.21 100 1004.7
20260507203104 8 180 6.4 14.5 0.84 2.11 2.11 100 1004.9
20260507201555 8 217 6.4 12.9 0.99 1.88 1.88 100 1005.4
20260507200105 8 205 9.7 16.1 0.99 1.70 1.70 100 1006.1
20260507194553 8 188 11.3 25.7 1.02 1.52 1.52 100 1005.5
20260507193110 8 193 12.9 25.7 0.89 1.27 1.27 100 1005.4
20260507191556 9 202 16.1 30.6 0.56 0.89 0.89 100 1006.1
20260507190047 9 175 12.9 24.1 0.43 0.71 0.71 100 1006.3
20260507184545 8 167 6.4 24.1 0.23 0.48 0.48 100 1006.5
20260507183056 9 221 12.9 27.4 0.15 0.38 0.38 100 1006.4